• In France
  • List of Countries
  • For 7 days
  • Water Temperature
  • Satellite Maps
  • Weather Map
  • Weather Widgets
  • user-avatar
    Login

    Hourly Weather Zaranj

    Today, 20 February, Tuesday

    Time Temperature Precipitation Wind Pressure Humidity
    00:00 +26°C° 0 mm 6 mps 713 mmHg 20%
    01:00 +24°C° 0 mm 7 mps 713 mmHg 20%
    02:00 +24°C° 0 mm 6 mps 713 mmHg 21%
    03:00 +23°C° 0 mm 5 mps 713 mmHg 22%
    04:00 +22°C° 0 mm 4 mps 713 mmHg 24%
    05:00 +21°C° 0 mm 5 mps 713 mmHg 27%
    06:00 +20°C° 0 mm 5 mps 714 mmHg 31%
    07:00 +17°C° 0 mm 6 mps 714 mmHg 34%
    08:00 +19°C° 0 mm 6 mps 715 mmHg 33%
    09:00 +18°C° 0 mm 7 mps 716 mmHg 31%
    10:00 +20°C° 0 mm 8 mps 716 mmHg 29%
    11:00 +21°C° 0 mm 8 mps 716 mmHg 27%
    12:00 +22°C° 0 mm 8 mps 717 mmHg 26%
    13:00 +23°C° 0 mm 8 mps 717 mmHg 24%
    14:00 +24°C° 0 mm 8 mps 717 mmHg 23%
    15:00 +24°C° 0 mm 7 mps 717 mmHg 22%
    16:00 +24°C° 0 mm 7 mps 717 mmHg 21%
    17:00 +23°C° 0 mm 6 mps 717 mmHg 23%
    18:00 +22°C° 0 mm 6 mps 717 mmHg 25%
    19:00 +21°C° 0 mm 6 mps 717 mmHg 27%
    20:00 +20°C° 0 mm 6 mps 718 mmHg 30%
    21:00 +19°C° 0 mm 6 mps 718 mmHg 32%
    22:00 +17°C° 0 mm 6 mps 718 mmHg 34%
    23:00 +16°C° 0 mm 6 mps 718 mmHg 36%

    Tomorrow, 21 February, Wednesday

    Time Temperature Precipitation Wind Pressure Humidity
    00:00 +16°C° 0 mm 5 mps 719 mmHg 37%
    01:00 +15°C° 0 mm 5 mps 719 mmHg 39%
    02:00 +15°C° 0 mm 5 mps 719 mmHg 40%
    03:00 +14°C° 0 mm 4 mps 719 mmHg 42%
    04:00 +14°C° 0 mm 4 mps 719 mmHg 43%
    05:00 +14°C° 0 mm 4 mps 719 mmHg 44%
    06:00 +13°C° 0 mm 4 mps 719 mmHg 45%
    07:00 +13°C° 0 mm 3 mps 720 mmHg 46%
    08:00 +15°C° 0 mm 4 mps 720 mmHg 41%
    09:00 +17°C° 0 mm 4 mps 721 mmHg 36%
    10:00 +19°C° 0 mm 4 mps 721 mmHg 31%
    11:00 +20°C° 0 mm 3 mps 720 mmHg 28%
    12:00 +22°C° 0 mm 3 mps 720 mmHg 24%
    13:00 +24°C° 0 mm 2 mps 719 mmHg 21%
    14:00 +24°C° 0 mm 2 mps 719 mmHg 21%
    15:00 +25°C° 0 mm 2 mps 718 mmHg 20%
    16:00 +25°C° 0 mm 1 mps 718 mmHg 19%
    17:00 +24°C° 0 mm 2 mps 718 mmHg 20%
    18:00 +23°C° 0 mm 2 mps 718 mmHg 21%
    19:00 +23°C° 0 mm 2 mps 718 mmHg 21%
    20:00 +21°C° 0 mm 2 mps 718 mmHg 22%
    21:00 +20°C° 0 mm 2 mps 718 mmHg 23%
    22:00 +19°C° 0 mm 2 mps 718 mmHg 24%
    23:00 +19°C° 0 mm 2 mps 718 mmHg 25%

    Day after tomorrow, 22 February, Thursday

    Time Temperature Precipitation Wind Pressure Humidity
    00:00 +19°C° 0 mm 2 mps 718 mmHg 25%
    01:00 +18°C° 0 mm 2 mps 718 mmHg 26%
    02:00 +18°C° 0 mm 2 mps 718 mmHg 27%
    03:00 +17°C° 0 mm 2 mps 717 mmHg 28%
    04:00 +17°C° 0 mm 2 mps 717 mmHg 28%
    05:00 +17°C° 0 mm 2 mps 717 mmHg 29%
    06:00 +17°C° 0 mm 2 mps 717 mmHg 29%
    07:00 +17°C° 0 mm 2 mps 717 mmHg 30%
    08:00 +18°C° 0 mm 2 mps 717 mmHg 26%
    09:00 +20°C° 0 mm 2 mps 718 mmHg 23%
    10:00 +23°C° 0 mm 2 mps 718 mmHg 19%
    11:00 +24°C° 0 mm 2 mps 718 mmHg 18%
    12:00 +25°C° 0 mm 2 mps 717 mmHg 16%
    13:00 +26°C° 0 mm 1 mps 717 mmHg 15%
    14:00 +26°C° 0 mm 2 mps 716 mmHg 15%
    15:00 +26°C° 0 mm 2 mps 716 mmHg 14%
    16:00 +27°C° 0 mm 2 mps 716 mmHg 14%
    17:00 +26°C° 0 mm 2 mps 716 mmHg 15%
    18:00 +25°C° 0 mm 3 mps 716 mmHg 15%
    19:00 +25°C° 0 mm 3 mps 716 mmHg 16%
    20:00 +24°C° 0 mm 3 mps 716 mmHg 17%
    21:00 +23°C° 0 mm 2 mps 716 mmHg 18%
    22:00 +23°C° 0 mm 2 mps 716 mmHg 19%
    23:00 +21°C° 0 mm 2 mps 716 mmHg 20%

    23 February, Friday

    Time Temperature Precipitation Wind Pressure Humidity
    00:00 +21°C° 0 mm 2 mps 716 mmHg 20%
    01:00 +20°C° 0 mm 2 mps 716 mmHg 21%
    02:00 +20°C° 0 mm 2 mps 715 mmHg 22%
    03:00 +20°C° 0 mm 2 mps 715 mmHg 22%
    04:00 +20°C° 0 mm 2 mps 714 mmHg 23%
    05:00 +19°C° 0 mm 2 mps 714 mmHg 23%
    06:00 +19°C° 0 mm 2 mps 715 mmHg 24%
    07:00 +19°C° 0 mm 2 mps 715 mmHg 24%
    08:00 +21°C° 0 mm 3 mps 715 mmHg 22%
    09:00 +22°C° 0 mm 3 mps 715 mmHg 20%
    10:00 +25°C° 0 mm 4 mps 715 mmHg 18%
    11:00 +25°C° 0 mm 4 mps 715 mmHg 18%
    12:00 +26°C° 0 mm 4 mps 714 mmHg 17%
    13:00 +27°C° 0 mm 4 mps 713 mmHg 17%
    14:00 +27°C° 0.1 mm 4 mps 713 mmHg 18%
    15:00 +27°C° 0.1 mm 5 mps 713 mmHg 19%
    16:00 +26°C° 0.1 mm 5 mps 712 mmHg 20%
    17:00 +24°C° 0 mm 6 mps 712 mmHg 24%
    18:00 +23°C° 0 mm 6 mps 713 mmHg 28%
    19:00 +22°C° 0 mm 7 mps 713 mmHg 32%
    20:00 +21°C° 0 mm 6 mps 713 mmHg 36%
    21:00 +20°C° 0 mm 6 mps 714 mmHg 41%
    22:00 +19°C° 0 mm 5 mps 714 mmHg 45%
    23:00 +18°C° 0 mm 4 mps 714 mmHg 47%

    24 February, Saturday

    Time Temperature Precipitation Wind Pressure Humidity
    00:00 +18°C° 0 mm 4 mps 714 mmHg 50%
    01:00 +17°C° 0 mm 3 mps 714 mmHg 52%
    02:00 +17°C° 0 mm 3 mps 714 mmHg 54%
    03:00 +16°C° 0 mm 3 mps 713 mmHg 55%
    04:00 +16°C° 0 mm 3 mps 713 mmHg 57%
    05:00 +16°C° 0 mm 3 mps 714 mmHg 58%
    06:00 +16°C° 0 mm 2 mps 714 mmHg 60%
    07:00 +15°C° 0 mm 2 mps 715 mmHg 61%
    08:00 +18°C° 0 mm 1 mps 715 mmHg 55%
    09:00 +20°C° 0 mm 1 mps 716 mmHg 49%
    10:00 +21°C° 0 mm 1 mps 716 mmHg 43%
    11:00 +22°C° 0 mm 1 mps 716 mmHg 39%
    12:00 +23°C° 0 mm 1 mps 715 mmHg 35%
    13:00 +25°C° 0 mm 1 mps 715 mmHg 31%
    14:00 +25°C° 0.1 mm 2 mps 715 mmHg 30%
    15:00 +25°C° 0.1 mm 3 mps 715 mmHg 29%
    16:00 +25°C° 0.1 mm 4 mps 715 mmHg 28%
    17:00 +23°C° 0 mm 4 mps 715 mmHg 31%
    18:00 +22°C° 0 mm 4 mps 716 mmHg 33%
    19:00 +21°C° 0 mm 4 mps 716 mmHg 36%
    20:00 +21°C° 0 mm 3 mps 716 mmHg 37%
    21:00 +20°C° 0 mm 3 mps 716 mmHg 39%
    22:00 +20°C° 0 mm 2 mps 717 mmHg 40%
    23:00 +19°C° 0 mm 2 mps 716 mmHg 42%

    25 February, Sunday

    Time Temperature Precipitation Wind Pressure Humidity
    00:00 +19°C° 0 mm 2 mps 716 mmHg 43%
    01:00 +18°C° 0 mm 2 mps 716 mmHg 44%
    02:00 +18°C° 0 mm 2 mps 716 mmHg 45%
    03:00 +18°C° 0 mm 2 mps 716 mmHg 46%
    04:00 +18°C° 0 mm 2 mps 716 mmHg 46%
    05:00 +18°C° 0 mm 2 mps 717 mmHg 47%
    06:00 +18°C° 0 mm 2 mps 717 mmHg 47%
    07:00 +18°C° 0 mm 2 mps 717 mmHg 47%
    08:00 +19°C° 0 mm 2 mps 718 mmHg 44%
    09:00 +21°C° 0 mm 3 mps 718 mmHg 40%
    10:00 +22°C° 0 mm 3 mps 719 mmHg 37%
    11:00 +24°C° 0 mm 3 mps 718 mmHg 35%
    12:00 +25°C° 0 mm 3 mps 718 mmHg 34%
    13:00 +26°C° 0 mm 3 mps 717 mmHg 32%
    14:00 +25°C° 0.3 mm 4 mps 717 mmHg 35%
    15:00 +23°C° 0.3 mm 4 mps 717 mmHg 39%
    16:00 +23°C° 0.3 mm 5 mps 716 mmHg 42%
    17:00 +22°C° 0.1 mm 4 mps 716 mmHg 45%
    18:00 +22°C° 0.1 mm 4 mps 716 mmHg 47%
    19:00 +21°C° 0.1 mm 3 mps 716 mmHg 50%
    20:00 +21°C° 0.1 mm 3 mps 716 mmHg 51%
    21:00 +21°C° 0.1 mm 3 mps 716 mmHg 52%
    22:00 +21°C° 0.1 mm 3 mps 716 mmHg 53%
    23:00 +20°C° 0.1 mm 2 mps 716 mmHg 54%
    Show more